When you browse on this site, cookies collect data to enhance your experience and personalize the content and advertising you see.
Visit our Privacy Policy to learn more. By continuing to use the site, you agree to this use of cookies and data.
  • In United Kingdom
  • List of Countries
  • For 7 days
  • Water Temperature
  • Satellite Maps
  • Weather Map
  • Weather Widgets
  • user-avatar
    Login

    Hourly Weather Montesilvano

    Today, 26 March, Tuesday

    Time Temperature Precipitation Wind Pressure Humidity
    00:00 +13°C° 0 mm 4 mps 753 mmHg 56%
    01:00 +13°C° 0 mm 4 mps 753 mmHg 57%
    02:00 +12°C° 0.3 mm 4 mps 753 mmHg 65%
    03:00 +12°C° 0.3 mm 4 mps 753 mmHg 73%
    04:00 +11°C° 0.3 mm 4 mps 753 mmHg 81%
    05:00 +10°C° 0.5 mm 5 mps 753 mmHg 82%
    06:00 +9°C° 0.5 mm 6 mps 754 mmHg 82%
    07:00 +9°C° 0.5 mm 7 mps 754 mmHg 83%
    08:00 +9°C° 0.7 mm 7 mps 755 mmHg 83%
    09:00 +8°C° 0.7 mm 7 mps 755 mmHg 83%
    10:00 +8°C° 0.7 mm 6 mps 755 mmHg 84%
    11:00 +8°C° 0.3 mm 6 mps 756 mmHg 82%
    12:00 +8°C° 0.3 mm 6 mps 756 mmHg 79%
    13:00 +8°C° 0.3 mm 6 mps 757 mmHg 77%
    14:00 +8°C° 0.1 mm 6 mps 757 mmHg 75%
    15:00 +9°C° 0.1 mm 6 mps 757 mmHg 73%
    16:00 +9°C° 0.1 mm 6 mps 757 mmHg 71%
    17:00 +9°C° 0.1 mm 5 mps 757 mmHg 71%
    18:00 +8°C° 0.1 mm 5 mps 758 mmHg 72%
    19:00 +8°C° 0.1 mm 4 mps 758 mmHg 72%
    20:00 +8°C° 0 mm 4 mps 758 mmHg 71%
    21:00 +8°C° 0 mm 5 mps 759 mmHg 70%
    22:00 +8°C° 0 mm 5 mps 759 mmHg 68%
    23:00 +8°C° 0 mm 5 mps 760 mmHg 68%

    Tomorrow, 27 March, Wednesday

    Time Temperature Precipitation Wind Pressure Humidity
    00:00 +8°C° 0 mm 5 mps 760 mmHg 69%
    01:00 +8°C° 0 mm 5 mps 760 mmHg 69%
    02:00 +8°C° 0.1 mm 5 mps 760 mmHg 69%
    03:00 +8°C° 0.1 mm 5 mps 760 mmHg 70%
    04:00 +8°C° 0.1 mm 4 mps 760 mmHg 71%
    05:00 +8°C° 0.6 mm 4 mps 760 mmHg 72%
    06:00 +8°C° 0.6 mm 4 mps 761 mmHg 74%
    07:00 +8°C° 0.6 mm 4 mps 761 mmHg 75%
    08:00 +8°C° 0.6 mm 5 mps 761 mmHg 74%
    09:00 +8°C° 0.6 mm 5 mps 762 mmHg 72%
    10:00 +9°C° 0.6 mm 5 mps 762 mmHg 71%
    11:00 +10°C° 0 mm 6 mps 762 mmHg 66%
    12:00 +10°C° 0 mm 6 mps 762 mmHg 60%
    13:00 +11°C° 0 mm 6 mps 762 mmHg 55%
    14:00 +11°C° 0 mm 6 mps 762 mmHg 54%
    15:00 +11°C° 0 mm 6 mps 762 mmHg 54%
    16:00 +11°C° 0 mm 6 mps 762 mmHg 53%
    17:00 +10°C° 0 mm 5 mps 762 mmHg 57%
    18:00 +8°C° 0 mm 5 mps 762 mmHg 62%
    19:00 +7°C° 0 mm 5 mps 763 mmHg 66%
    20:00 +7°C° 0 mm 5 mps 763 mmHg 67%
    21:00 +7°C° 0 mm 5 mps 763 mmHg 68%
    22:00 +6°C° 0 mm 5 mps 764 mmHg 68%
    23:00 +6°C° 0 mm 5 mps 764 mmHg 69%

    Day after tomorrow, 28 March, Thursday

    Time Temperature Precipitation Wind Pressure Humidity
    00:00 +6°C° 0 mm 5 mps 764 mmHg 69%
    01:00 +6°C° 0 mm 4 mps 764 mmHg 69%
    02:00 +6°C° 0 mm 5 mps 764 mmHg 71%
    03:00 +6°C° 0 mm 5 mps 764 mmHg 73%
    04:00 +6°C° 0 mm 5 mps 764 mmHg 74%
    05:00 +6°C° 0 mm 5 mps 764 mmHg 73%
    06:00 +6°C° 0 mm 5 mps 764 mmHg 71%
    07:00 +6°C° 0 mm 5 mps 764 mmHg 70%
    08:00 +8°C° 0 mm 5 mps 764 mmHg 64%
    09:00 +9°C° 0 mm 5 mps 765 mmHg 57%
    10:00 +12°C° 0 mm 5 mps 765 mmHg 51%
    11:00 +12°C° 0 mm 5 mps 765 mmHg 50%
    12:00 +13°C° 0 mm 5 mps 765 mmHg 49%
    13:00 +13°C° 0 mm 5 mps 765 mmHg 48%
    14:00 +13°C° 0 mm 5 mps 764 mmHg 48%
    15:00 +13°C° 0 mm 5 mps 764 mmHg 48%
    16:00 +12°C° 0 mm 5 mps 764 mmHg 48%
    17:00 +11°C° 0 mm 4 mps 764 mmHg 52%
    18:00 +10°C° 0 mm 4 mps 765 mmHg 57%
    19:00 +8°C° 0 mm 4 mps 765 mmHg 61%
    20:00 +7°C° 0 mm 4 mps 765 mmHg 60%
    21:00 +7°C° 0 mm 5 mps 766 mmHg 59%
    22:00 +6°C° 0 mm 5 mps 766 mmHg 59%
    23:00 +7°C° 0 mm 5 mps 767 mmHg 59%

    29 March, Friday

    Time Temperature Precipitation Wind Pressure Humidity
    00:00 +7°C° 0 mm 4 mps 767 mmHg 59%
    01:00 +7°C° 0 mm 4 mps 767 mmHg 58%
    02:00 +7°C° 0 mm 4 mps 767 mmHg 62%
    03:00 +7°C° 0 mm 4 mps 767 mmHg 65%
    04:00 +6°C° 0 mm 4 mps 767 mmHg 69%
    05:00 +7°C° 0 mm 4 mps 767 mmHg 68%
    06:00 +7°C° 0 mm 4 mps 767 mmHg 68%
    07:00 +7°C° 0 mm 4 mps 767 mmHg 68%
    08:00 +10°C° 0 mm 4 mps 767 mmHg 62%
    09:00 +12°C° 0 mm 4 mps 768 mmHg 56%
    10:00 +13°C° 0 mm 4 mps 768 mmHg 49%
    11:00 +14°C° 0 mm 4 mps 768 mmHg 48%
    12:00 +14°C° 0 mm 4 mps 768 mmHg 47%
    13:00 +15°C° 0 mm 4 mps 767 mmHg 46%
    14:00 +14°C° 0 mm 3 mps 767 mmHg 47%
    15:00 +14°C° 0 mm 3 mps 767 mmHg 48%
    16:00 +14°C° 0 mm 3 mps 767 mmHg 50%
    17:00 +13°C° 0 mm 3 mps 767 mmHg 55%
    18:00 +11°C° 0 mm 3 mps 767 mmHg 61%
    19:00 +9°C° 0 mm 2 mps 767 mmHg 67%
    20:00 +9°C° 0 mm 3 mps 767 mmHg 66%
    21:00 +9°C° 0 mm 3 mps 767 mmHg 66%
    22:00 +7°C° 0 mm 4 mps 768 mmHg 66%
    23:00 +7°C° 0 mm 4 mps 767 mmHg 60%

    30 March, Saturday

    Time Temperature Precipitation Wind Pressure Humidity
    00:00 +7°C° 0 mm 4 mps 767 mmHg 53%
    01:00 +7°C° 0 mm 4 mps 767 mmHg 47%
    02:00 +7°C° 0 mm 4 mps 767 mmHg 42%
    03:00 +7°C° 0 mm 4 mps 767 mmHg 37%
    04:00 +7°C° 0 mm 4 mps 767 mmHg 33%
    05:00 +7°C° 0 mm 4 mps 766 mmHg 36%
    06:00 +8°C° 0 mm 4 mps 766 mmHg 40%
    07:00 +9°C° 0 mm 3 mps 766 mmHg 44%
    08:00 +11°C° 0 mm 3 mps 766 mmHg 46%
    09:00 +13°C° 0 mm 3 mps 766 mmHg 47%
    10:00 +14°C° 0 mm 3 mps 766 mmHg 49%
    11:00 +16°C° 0 mm 3 mps 765 mmHg 49%
    12:00 +16°C° 0 mm 3 mps 765 mmHg 50%
    13:00 +17°C° 0 mm 3 mps 764 mmHg 50%
    14:00 +17°C° 0 mm 3 mps 764 mmHg 54%
    15:00 +16°C° 0 mm 3 mps 763 mmHg 58%
    16:00 +16°C° 0 mm 3 mps 763 mmHg 62%
    17:00 +14°C° 0 mm 2 mps 763 mmHg 69%
    18:00 +13°C° 0 mm 2 mps 763 mmHg 76%
    19:00 +11°C° 0 mm 1 mps 762 mmHg 84%
    20:00 +11°C° 0 mm 1 mps 762 mmHg 83%
    21:00 +10°C° 0 mm 2 mps 762 mmHg 82%
    22:00 +10°C° 0 mm 2 mps 762 mmHg 81%
    23:00 +10°C° 0 mm 2 mps 762 mmHg 79%

    31 March, Sunday

    Time Temperature Precipitation Wind Pressure Humidity
    00:00 +10°C° 0 mm 2 mps 761 mmHg 76%
    01:00 +10°C° 0 mm 2 mps 761 mmHg 74%
    02:00 +10°C° 0 mm 2 mps 761 mmHg 73%
    03:00 +9°C° 0 mm 2 mps 760 mmHg 73%
    04:00 +9°C° 0 mm 2 mps 760 mmHg 72%
    05:00 +10°C° 0 mm 2 mps 760 mmHg 72%
    06:00 +10°C° 0 mm 2 mps 759 mmHg 71%
    07:00 +10°C° 0 mm 2 mps 759 mmHg 70%
    08:00 +13°C° 0 mm 2 mps 759 mmHg 62%
    09:00 +15°C° 0 mm 2 mps 759 mmHg 54%
    10:00 +18°C° 0 mm 1 mps 759 mmHg 46%
    11:00 +17°C° 0 mm 2 mps 758 mmHg 45%
    12:00 +18°C° 0 mm 2 mps 758 mmHg 45%
    13:00 +18°C° 0 mm 3 mps 758 mmHg 44%
    14:00 +18°C° 0 mm 3 mps 757 mmHg 47%
    15:00 +17°C° 0 mm 2 mps 757 mmHg 50%
    16:00 +17°C° 0 mm 2 mps 757 mmHg 52%
    17:00 +15°C° 0 mm 2 mps 756 mmHg 59%
    18:00 +14°C° 0 mm 1 mps 756 mmHg 65%
    19:00 +12°C° 0 mm 1 mps 756 mmHg 71%
    20:00 +12°C° 0 mm 1 mps 756 mmHg 70%
    21:00 +12°C° 0 mm 2 mps 757 mmHg 69%
    22:00 +12°C° 0 mm 2 mps 757 mmHg 68%
    23:00 +12°C° 0 mm 2 mps 757 mmHg 67%
    Show more